Le Mars, IA

8:06 PM CDT on May 23, 2017 (GMT -0500)
Le Mars Municipal

Weather History for KLRJ - July, 2013

Change the Weather History Date:

Monday, July 22, 2013

  Actual Average Record
Temperature  
Mean Temperature 78 °F -  
Max Temperature 89 °F 85 °F 100 °F (2012)
Min Temperature 66 °F 62 °F 48 °F (2006)
Cooling Degree Days 12    
Growing Degree Days 28 (Base 50)    
Moisture  
Dew Point 65 °F    
Average Humidity 68    
Maximum Humidity 94    
Minimum Humidity 42    
Precipitation  
Precipitation 0.00 in - - ()
Sea Level Pressure  
Sea Level Pressure 29.79 in    
Wind  
Wind Speed 5 mph (West)    
Max Wind Speed 15 mph    
Max Gust Speed 21 mph    
Visibility 10 miles    
Events      
Averages and records for this station are not official NWS values.
T = Trace of Precipitation, MM = Missing Value Source: NWS Daily Summary

Daily Weather History Graph

Daily Weather History Graph

Search for Another Location

Airport or City:

Trip Planner

Search our weather history database for the weather conditions in past years. The results will help you decide how hot, cold, wet, or windy it might be!

Date:

Astronomy

Jul. 22, 2013 Rise Set
Actual Time 6:06 AM CDT 8:55 PM CDT
Civil Twilight 5:33 AM CDT 9:28 PM CDT
Nautical Twilight 4:51 AM CDT 10:10 PM CDT
Astronomical Twilight 4:02 AM CDT 10:58 PM CDT
Moon 8:39 PM CDT (7/22) 6:05 AM CDT (7/22)
Length of Visible Light 15h 55m
Length of Day
14h 48m
Full, 100% of the Moon is Illuminated
Jul 22
Full
Jul 22
Full
Jul 29
Last Quarter
Aug 6
New
Aug 14
First Quarter

Hourly Weather History & Observations

Time (CDT) Temp. Heat Index Dew Point Humidity Pressure Visibility Wind Dir Wind Speed Gust Speed Precip Events Conditions
12:15 AM 71.6 °F - 64.4 °F 78% 29.81 in 10.0 mi SSW 3.5 mph - N/A   Clear
12:35 AM 73.4 °F - 66.2 °F 78% 29.80 in 10.0 mi SSE 4.6 mph - N/A   Clear
12:55 AM 71.6 °F - 66.2 °F 83% 29.80 in 10.0 mi Calm Calm - N/A   Clear
1:15 AM 71.6 °F - 66.2 °F 83% 29.79 in 10.0 mi Calm Calm - N/A   Clear
1:35 AM 69.8 °F - 66.2 °F 88% 29.78 in 10.0 mi SSW 3.5 mph - N/A   Clear
1:55 AM 71.6 °F - 66.2 °F 83% 29.77 in 10.0 mi South 5.8 mph - N/A   Clear
2:15 AM 69.8 °F - 66.2 °F 88% 29.77 in 10.0 mi SSW 5.8 mph - N/A   Clear
2:35 AM 69.8 °F - 66.2 °F 88% 29.77 in 10.0 mi Calm Calm - N/A   Clear
2:55 AM 69.8 °F - 66.2 °F 88% 29.77 in 10.0 mi Calm Calm - N/A   Clear
3:15 AM 69.8 °F - 66.2 °F 88% 29.78 in 10.0 mi South 4.6 mph - N/A   Clear
3:35 AM 69.8 °F - 66.2 °F 88% 29.77 in 10.0 mi South 3.5 mph - N/A   Clear
3:55 AM 69.8 °F - 66.2 °F 88% 29.76 in 10.0 mi South 3.5 mph - N/A   Clear
4:15 AM 69.8 °F - 66.2 °F 88% 29.76 in 10.0 mi South 4.6 mph - N/A   Clear
4:35 AM 69.8 °F - 66.2 °F 88% 29.75 in 7.0 mi South 3.5 mph - N/A   Clear
4:55 AM 69.8 °F - 66.2 °F 88% 29.75 in 7.0 mi South 3.5 mph - N/A   Clear
5:15 AM 69.8 °F - 66.2 °F 88% 29.75 in 7.0 mi Calm Calm - N/A   Clear
5:35 AM 68.0 °F - 64.4 °F 88% 29.75 in 7.0 mi South 3.5 mph - N/A   Clear
5:55 AM 68.0 °F - 66.2 °F 94% 29.75 in 7.0 mi South 4.6 mph - N/A   Clear
6:15 AM 68.0 °F - 64.4 °F 88% 29.75 in 5.0 mi South 3.5 mph - N/A   Clear
6:35 AM 68.0 °F - 64.4 °F 88% 29.75 in 7.0 mi Calm Calm - N/A   Clear
6:55 AM 69.8 °F - 66.2 °F 88% 29.75 in 7.0 mi South 4.6 mph - N/A   Clear
7:15 AM 69.8 °F - 66.2 °F 88% 29.75 in 7.0 mi South 4.6 mph - N/A   Clear
7:35 AM 71.6 °F - 66.2 °F 83% 29.76 in 10.0 mi SSW 4.6 mph - N/A   Clear
7:55 AM 71.6 °F - 66.2 °F 83% 29.75 in 10.0 mi SSW 8.1 mph - N/A   Clear
8:35 AM 73.4 °F - 66.2 °F 78% 29.77 in 10.0 mi SSW 6.9 mph - N/A   Clear
9:35 AM 77.0 °F - 69.8 °F 78% 29.82 in 10.0 mi NNE 8.1 mph 20.7 mph N/A   Scattered Clouds
9:55 AM 75.2 °F - 68.0 °F 78% 29.81 in 10.0 mi NNE 6.9 mph - N/A   Scattered Clouds
10:15 AM 77.0 °F - 66.2 °F 69% 29.80 in 10.0 mi Calm Calm - N/A   Scattered Clouds
10:35 AM 77.0 °F - 68.0 °F 74% 29.79 in 10.0 mi SE 5.8 mph - N/A   Scattered Clouds
10:55 AM 78.8 °F - 69.8 °F 74% 29.79 in 10.0 mi SSE 5.8 mph - N/A   Clear
11:15 AM 82.4 °F 86.3 °F 69.8 °F 66% 29.79 in 10.0 mi East 3.5 mph - N/A   Clear
11:35 AM 82.4 °F 84.6 °F 66.2 °F 58% 29.79 in 10.0 mi SSW 3.5 mph - N/A   Clear
11:55 AM 84.2 °F 88.4 °F 69.8 °F 62% 29.78 in 10.0 mi WSW 5.8 mph - N/A   Clear
12:15 PM 86.0 °F 90.4 °F 69.8 °F 58% 29.78 in 10.0 mi SW 11.5 mph - N/A   Scattered Clouds
12:35 PM 87.8 °F 91.4 °F 68.0 °F 52% 29.78 in 10.0 mi WSW 10.4 mph - N/A   Scattered Clouds
12:55 PM 87.8 °F 92.6 °F 69.8 °F 55% 29.78 in 10.0 mi West 9.2 mph - N/A   Clear
1:15 PM 87.8 °F 92.6 °F 69.8 °F 55% 29.77 in 10.0 mi WNW 5.8 mph - N/A   Clear
1:35 PM 87.8 °F 91.4 °F 68.0 °F 52% 29.77 in 10.0 mi West 13.8 mph - N/A   Clear
1:55 PM 87.8 °F 92.6 °F 69.8 °F 55% 29.77 in 10.0 mi WNW 8.1 mph - N/A   Clear
2:15 PM 89.6 °F 94.7 °F 69.8 °F 52% 29.77 in 10.0 mi NW 15.0 mph 18.4 mph N/A   Clear
2:35 PM 89.6 °F 92.2 °F 66.2 °F 46% 29.77 in 10.0 mi NNW 12.7 mph 18.4 mph N/A   Clear
2:55 PM 87.8 °F 91.4 °F 68.0 °F 52% 29.78 in 10.0 mi NNW 11.5 mph 17.3 mph N/A   Clear
3:15 PM 89.6 °F 92.2 °F 66.2 °F 46% 29.78 in 10.0 mi NW 9.2 mph 17.3 mph N/A   Clear
3:35 PM 89.6 °F 92.2 °F 66.2 °F 46% 29.79 in 10.0 mi NW 11.5 mph 16.1 mph N/A   Clear
3:55 PM 87.8 °F 89.4 °F 64.4 °F 46% 29.79 in 10.0 mi WNW 10.4 mph - N/A   Clear
4:15 PM 87.8 °F 89.4 °F 64.4 °F 46% 29.79 in 10.0 mi NNW 6.9 mph 17.3 mph N/A   Clear
4:35 PM 87.8 °F 89.4 °F 64.4 °F 46% 29.79 in 10.0 mi NNW 10.4 mph 16.1 mph N/A   Clear
4:55 PM 87.8 °F 88.5 °F 62.6 °F 43% 29.79 in 10.0 mi NW 10.4 mph 17.3 mph N/A   Clear
5:15 PM 87.8 °F 88.5 °F 62.6 °F 43% 29.79 in 10.0 mi NNW 8.1 mph - N/A   Clear
5:35 PM 87.8 °F 88.5 °F 62.6 °F 43% 29.79 in 10.0 mi NW 12.7 mph - N/A   Clear
5:55 PM 87.8 °F 88.5 °F 62.6 °F 43% 29.79 in 10.0 mi NW 13.8 mph - N/A   Clear
6:15 PM 84.2 °F 84.4 °F 60.8 °F 45% 29.79 in 10.0 mi NW 11.5 mph 18.4 mph N/A   Clear
6:35 PM 84.2 °F 84.4 °F 60.8 °F 45% 29.80 in 10.0 mi NNW 9.2 mph - N/A   Clear
6:55 PM 84.2 °F 84.4 °F 60.8 °F 45% 29.80 in 10.0 mi NW 10.4 mph - N/A   Clear
7:15 PM 82.4 °F 82.0 °F 57.2 °F 42% 29.81 in 10.0 mi NNW 8.1 mph 16.1 mph N/A   Clear
7:35 PM 82.4 °F 82.9 °F 60.8 °F 48% 29.81 in 10.0 mi NNW 6.9 mph - N/A   Clear
7:55 PM 80.6 °F 81.5 °F 60.8 °F 51% 29.81 in 10.0 mi NNW 6.9 mph - N/A   Clear
8:15 PM 78.8 °F - 59.0 °F 51% 29.81 in 10.0 mi NNW 4.6 mph - N/A   Clear
8:35 PM 77.0 °F - 57.2 °F 50% 29.81 in 10.0 mi NNW 4.6 mph - N/A   Clear
8:55 PM 73.4 °F - 59.0 °F 61% 29.82 in 10.0 mi North 3.5 mph - N/A   Clear
9:15 PM 73.4 °F - 59.0 °F 61% 29.83 in 10.0 mi Calm Calm - N/A   Clear
9:35 PM 71.6 °F - 60.8 °F 69% 29.85 in 10.0 mi North 4.6 mph - N/A   Clear
9:55 PM 69.8 °F - 60.8 °F 73% 29.86 in 10.0 mi Calm Calm - N/A   Clear
10:15 PM 71.6 °F - 60.8 °F 69% 29.87 in 10.0 mi Calm Calm - N/A   Clear
10:35 PM 66.2 °F - 60.8 °F 83% 29.88 in 10.0 mi Calm Calm - N/A   Clear
10:55 PM 68.0 °F - 60.8 °F 78% 29.89 in 10.0 mi Calm Calm - N/A   Clear
11:15 PM 69.8 °F - 60.8 °F 73% 29.90 in 10.0 mi NE 5.8 mph - N/A   Clear
11:35 PM 69.8 °F - 60.8 °F 73% 29.90 in 10.0 mi NE 3.5 mph - N/A   Clear
11:55 PM 69.8 °F - 60.8 °F 73% 29.91 in 10.0 mi NE 6.9 mph - N/A   Clear